This is the latest recevied weather packets stored in our database for station/object KN6CW-3. If no packets are shown the sender has not sent any weather packets the latest 1 day(s).
| Time | Temp. | Humidity | Pressure | Rain* | Wind** | Luminosity | Snow |
|---|---|---|---|---|---|---|---|
| 1778028587 | 20° C | 51% | 1007.5 hPa | 0 mm | 1.34 m/s, 212° | 0 W/m² | - |
| 1778028287 | 20° C | 51% | 1007.5 hPa | 0 mm | 1.34 m/s, 211° | 0 W/m² | - |
| 1778027986 | 20.56° C | 51% | 1007.5 hPa | 0 mm | 1.34 m/s, 261° | 0 W/m² | - |
| 1778027686 | 20.56° C | 50% | 1007.6 hPa | 0 mm | 1.34 m/s, 273° | 0 W/m² | - |
| 1778027386 | 20.56° C | 50% | 1007.6 hPa | 0 mm | 1.34 m/s, 176° | 0 W/m² | - |
| 1778027085 | 20.56° C | 49% | 1007.5 hPa | 0 mm | 1.79 m/s, 213° | 0 W/m² | - |
| 1778026785 | 20.56° C | 49% | 1007.5 hPa | 0 mm | 1.34 m/s, 203° | 0 W/m² | - |
| 1778026485 | 21.11° C | 49% | 1007.4 hPa | 0 mm | 1.34 m/s, 188° | 0 W/m² | - |
| 1778026185 | 21.11° C | 48% | 1007.4 hPa | 0 mm | 1.34 m/s, 229° | 0 W/m² | - |
| 1778025884 | 21.11° C | 48% | 1007.4 hPa | 0 mm | 1.34 m/s, 221° | 0 W/m² | - |
| 1778025584 | 21.11° C | 48% | 1007.3 hPa | 0 mm | 1.79 m/s, 155° | 0 W/m² | - |
| 1778025284 | 21.67° C | 47% | 1007.3 hPa | 0 mm | 1.79 m/s, 238° | 5 W/m² | - |
| 1778024983 | 21.67° C | 47% | 1007.2 hPa | 0 mm | 1.79 m/s, 207° | 9 W/m² | - |
| 1778024683 | 21.67° C | 47% | 1007.3 hPa | 0 mm | 1.79 m/s, 221° | 11 W/m² | - |
| 1778024383 | 21.67° C | 47% | 1007.3 hPa | 0 mm | 1.79 m/s, 200° | 11 W/m² | - |
| 1778024083 | 21.67° C | 47% | 1007.2 hPa | 0 mm | 1.79 m/s, 205° | 12 W/m² | - |
| 1778023782 | 22.22° C | 47% | 1007.1 hPa | 0 mm | 2.24 m/s, 241° | 9 W/m² | - |
| 1778023482 | 22.22° C | 47% | 1007.1 hPa | 0 mm | 2.24 m/s, 209° | 12 W/m² | - |
| 1778023182 | 22.22° C | 46% | 1007.1 hPa | 0 mm | 2.24 m/s, 215° | 11 W/m² | - |
| 1778022881 | 22.22° C | 46% | 1007.1 hPa | 0 mm | 2.24 m/s, 198° | 11 W/m² | - |
| 1778022581 | 22.22° C | 45% | 1007 hPa | 0 mm | 1.79 m/s, 198° | 9 W/m² | - |
| 1778022281 | 22.78° C | 42% | 1007.1 hPa | 0 mm | 1.79 m/s, 226° | 9 W/m² | - |
| 1778021981 | 22.78° C | 41% | 1007 hPa | 0 mm | 2.24 m/s, 214° | 9 W/m² | - |
| 1778021680 | 22.78° C | 41% | 1007 hPa | 0 mm | 2.24 m/s, 226° | 7 W/m² | - |
| 1778021380 | 22.78° C | 41% | 1007 hPa | 0 mm | 2.24 m/s, 193° | 9 W/m² | - |
* Rain latest hour (hover to see other rain measurements)
** Current wind speed in m/s (hover to see current wind gust speed)